EW6819 Weather Reports


time (UTC)temp
C
wind
direction
speed
KPH
gust
KPH
rain 1hr
cm
rain 24hr
cm
rain mn
cm
humidity
%
barometer
mb
20260509064503 7 250 3.2 6.4 0.00 0.25 0.00 51 1008.7
20260509064003 7 253 3.2 4.8 0.00 0.25 0.00 51 1008.8
20260509063503 7 239 3.2 4.8 0.00 0.25 0.00 52 1008.8
20260509063003 7 235 3.2 4.8 0.00 0.25 0.00 52 1008.9
20260509062503 6 251 3.2 6.4 0.00 0.25 0.00 51 1009.1
20260509062003 6 258 3.2 6.4 0.00 0.25 0.00 53 1009.1
20260509061504 6 259 1.6 4.8 0.00 0.25 0.00 53 1009.1
20260509061003 7 259 1.6 4.8 0.00 0.25 0.00 52 1009.1
20260509060503 7 259 1.6 4.8 0.00 0.25 0.00 52 1009.2
20260509060003 7 259 3.2 6.4 0.00 0.25 0.00 53 1009.3
20260509055503 7 260 3.2 6.4 0.00 0.25 0.00 51 1009.3
20260509055003 7 260 3.2 6.4 0.00 0.25 0.00 51 1009.4
20260509054503 7 258 3.2 6.4 0.00 0.25 0.00 52 1009.4
20260509054003 7 252 3.2 6.4 0.00 0.25 0.00 50 1009.4
20260509053503 7 234 3.2 6.4 0.00 0.25 0.00 51 1009.5
20260509053003 7 239 3.2 6.4 0.00 0.25 0.00 51 1009.5
20260509052503 7 254 1.6 4.8 0.00 0.25 0.00 52 1009.7
20260509052214 7 258 1.6 6.4 0.00 0.25 0.00 51 1009.7
20260509051503 7 255 3.2 6.4 0.00 0.25 0.00 51 1009.7
20260509051003 7 249 3.2 6.4 0.00 0.25 0.00 51 1009.8
20260509050503 7 242 3.2 8.0 0.00 0.25 0.00 52 1009.9
20260509050003 7 254 3.2 8.0 0.00 0.25 0.00 51 1009.9
20260509045503 7 265 3.2 6.4 0.00 0.25 0.00 52 1010.0
20260509045003 7 263 3.2 6.4 0.00 0.25 0.00 53 1009.9
20260509044503 7 263 3.2 6.4 0.00 0.25 0.00 53 1010.0
20260509044003 7 265 3.2 6.4 0.00 0.25 0.00 54 1010.0
20260509043712 7 265 3.2 6.4 0.00 0.25 0.00 54 1009.9
20260509043003 6 267 3.2 6.4 0.00 0.25 0.00 56 1009.9
20260509042503 6 268 1.6 6.4 0.00 0.25 0.00 58 1010.0
20260509042003 5 269 1.6 6.4 0.00 0.25 0.00 58 1010.0
20260509041503 5 268 1.6 6.4 0.00 0.25 0.00 57 1009.9
20260509041003 5 267 3.2 6.4 0.00 0.25 0.00 58 1010.0
20260509040503 5 267 3.2 6.4 0.00 0.25 0.00 58 1010.1
20260509040004 5 267 3.2 6.4 0.00 0.25 0.00 59 1010.0
20260509035503 5 267 3.2 4.8 0.00 0.25 0.25 59 1010.1
20260509035003 5 267 3.2 4.8 0.00 0.25 0.25 59 1010.0
20260509034712 5 267 3.2 4.8 0.00 0.25 0.25 59 1010.1
20260509034003 5 269 3.2 4.8 0.00 0.25 0.25 58 1010.0
20260509033503 5 270 3.2 4.8 0.00 0.25 0.25 58 1010.1
20260509033213 5 271 3.2 4.8 0.00 0.25 0.25 58 1010.0
20260509032503 5 269 3.2 6.4 0.00 0.25 0.25 58 1010.2
20260509032213 5 269 3.2 9.7 0.00 0.25 0.25 58 1010.1
20260509031714 5 270 3.2 9.7 0.00 0.25 0.25 58 1010.2
20260509031003 5 270 3.2 6.4 0.00 0.25 0.25 58 1010.1
20260509030503 5 271 3.2 6.4 0.00 0.25 0.25 58 1010.2
20260509030213 5 271 3.2 6.4 0.00 0.25 0.25 57 1010.3
20260509025503 5 270 3.2 4.8 0.00 0.25 0.25 57 1010.3
20260509025003 5 270 3.2 4.8 0.00 0.25 0.25 57 1010.2
20260509024503 5 271 3.2 6.4 0.00 0.25 0.25 57 1010.3
20260509024003 5 266 3.2 6.4 0.00 0.25 0.25 56 1010.3
20260509023503 6 263 3.2 6.4 0.00 0.25 0.25 55 1010.4
20260509023003 6 263 4.8 6.4 0.00 0.25 0.25 56 1010.4
20260509022503 6 263 4.8 6.4 0.00 0.25 0.25 55 1010.4
20260509022003 6 264 4.8 6.4 0.00 0.25 0.25 55 1010.4
20260509021503 6 265 4.8 6.4 0.00 0.25 0.25 54 1010.4
20260509021003 6 264 4.8 6.4 0.00 0.25 0.25 53 1010.4
20260509020503 6 264 4.8 6.4 0.00 0.25 0.25 53 1010.6
20260509020003 6 265 3.2 4.8 0.00 0.25 0.25 52 1010.6
20260509015503 6 265 3.2 4.8 0.00 0.25 0.25 53 1010.5
20260509015003 6 266 3.2 4.8 0.00 0.25 0.25 53 1010.6
20260509014713 6 266 3.2 4.8 0.00 0.25 0.25 53 1010.5
20260509014003 7 267 3.2 6.4 0.00 0.25 0.25 55 1010.4
20260509013503 7 268 3.2 4.8 0.00 0.25 0.25 52 1010.3
20260509013003 7 267 3.2 4.8 0.00 0.25 0.25 53 1010.4
20260509012503 7 267 4.8 6.4 0.00 0.25 0.25 54 1010.3
20260509012003 7 267 4.8 6.4 0.00 0.25 0.25 53 1010.1
20260509011503 7 271 3.2 6.4 0.00 0.25 0.25 51 1010.1
20260509011003 7 275 3.2 6.4 0.00 0.25 0.25 51 1010.1
20260509010503 7 276 3.2 4.8 0.00 0.25 0.25 52 1010.1
20260509010003 7 276 3.2 4.8 0.00 0.25 0.25 53 1009.9
20260509005503 7 281 3.2 6.4 0.00 0.25 0.25 54 1009.8
20260509005003 7 281 3.2 6.4 0.00 0.25 0.25 52 1009.6
20260509004503 7 274 3.2 6.4 0.00 0.25 0.25 52 1009.7
20260509004214 7 269 3.2 4.8 0.00 0.25 0.25 53 1009.6
20260509003713 7 269 3.2 4.8 0.00 0.25 0.25 53 1009.6
20260509003214 7 282 3.2 4.8 0.00 0.25 0.25 52 1009.5
20260509002503 7 281 3.2 6.4 0.00 0.25 0.25 53 1009.6
20260509002003 7 272 3.2 4.8 0.00 0.25 0.25 52 1009.5
20260509001503 7 272 3.2 6.4 0.00 0.25 0.25 52 1009.4
20260509001003 8 273 4.8 6.4 0.00 0.25 0.25 51 1009.5
20260509000503 8 275 3.2 6.4 0.00 0.25 0.25 50 1009.4
20260509000003 8 282 3.2 6.4 0.00 0.25 0.25 51 1009.4
20260508235503 8 296 3.2 6.4 0.00 0.25 0.25 49 1009.5
20260508235003 9 301 3.2 6.4 0.00 0.25 0.25 48 1009.3
20260508234712 9 301 3.2 6.4 0.00 0.25 0.25 47 1009.3
20260508234003 10 306 1.6 6.4 0.00 0.25 0.25 47 1009.2
20260508233503 10 313 1.6 4.8 0.00 0.25 0.25 43 1009.1
20260508233003 10 287 3.2 6.4 0.00 0.25 0.25 43 1009.0
20260508232503 10 302 3.2 6.4 0.00 0.25 0.25 45 1009.1
20260508232003 11 325 3.2 6.4 0.00 0.25 0.25 37 1009.0
20260508231503 11 320 1.6 4.8 0.00 0.25 0.25 37 1009.0
20260508231003 11 307 0.0 3.2 0.00 0.25 0.25 34 1009.1
20260508230503 11 219 1.6 9.7 0.00 0.25 0.25 36 1009.0
20260508230003 11 219 1.6 9.7 0.00 0.25 0.25 34 1009.0
20260508225503 12 266 0.0 9.7 0.00 0.25 0.25 37 1008.9
20260508225213 11 331 0.0 3.2 0.00 0.25 0.25 36 1009.0
20260508224503 11 332 1.6 6.4 0.00 0.25 0.25 37 1009.0
20260508224003 11 327 1.6 6.4 0.00 0.25 0.25 32 1009.0
20260508223503 11 228 1.6 4.8 0.00 0.25 0.25 34 1009.0
20260508223003 11 243 1.6 11.3 0.00 0.25 0.25 34 1008.9
20260508222503 11 265 3.2 11.3 0.00 0.25 0.25 36 1009.0
20260508222003 11 225 3.2 9.7 0.00 0.25 0.25 35 1009.0
20260508221503 11 224 4.8 9.7 0.00 0.25 0.25 36 1008.9
20260508221003 11 248 3.2 12.9 0.00 0.25 0.25 33 1009.0
20260508220503 11 202 4.8 16.1 0.00 0.25 0.25 34 1009.0
20260508220003 11 186 6.4 16.1 0.00 0.25 0.25 33 1009.0
20260508215503 11 237 4.8 14.5 0.00 0.25 0.25 35 1009.0
20260508215003 11 289 3.2 14.5 0.00 0.25 0.25 35 1009.1
20260508214503 11 299 3.2 9.7 0.00 0.25 0.25 35 1009.0
20260508214003 11 217 3.2 8.0 0.00 0.25 0.25 36 1009.0
20260508213503 11 243 4.8 11.3 0.00 0.25 0.25 34 1009.1
20260508213003 11 313 4.8 12.9 0.00 0.25 0.25 35 1009.1
20260508212714 11 343 3.2 12.9 0.00 0.25 0.25 35 1009.2
20260508212003 11 202 3.2 11.3 0.00 0.25 0.25 36 1009.2
20260508211503 11 257 3.2 12.9 0.00 0.25 0.25 33 1009.4
20260508211003 11 252 6.4 20.9 0.00 0.25 0.25 34 1009.3
20260508210503 11 268 6.4 20.9 0.00 0.25 0.25 33 1009.4
20260508210003 11 303 3.2 14.5 0.00 0.25 0.25 36 1009.3
20260508205503 11 247 1.6 8.0 0.00 0.25 0.25 34 1009.3
20260508205212 11 280 3.2 16.1 0.00 0.25 0.25 36 1009.3
20260508204503 11 293 3.2 16.1 0.00 0.25 0.25 41 1009.3
20260508204003 11 215 3.2 11.3 0.00 0.25 0.25 35 1009.3
20260508203503 11 230 4.8 17.7 0.00 0.25 0.25 35 1009.5
20260508203003 11 262 4.8 17.7 0.00 0.25 0.25 35 1009.4
20260508202503 11 277 6.4 20.9 0.00 0.25 0.25 33 1009.5
20260508202003 11 283 6.4 20.9 0.00 0.25 0.25 32 1009.6
20260508201503 12 319 8.0 19.3 0.00 0.25 0.25 35 1009.6
20260508201212 12 323 8.0 19.3 0.00 0.25 0.25 34 1009.6
20260508200503 12 322 8.0 19.3 0.00 0.25 0.25 34 1009.6
20260508200003 11 290 6.4 17.7 0.00 0.25 0.25 34 1009.7
20260508195503 11 290 4.8 19.3 0.00 0.25 0.25 36 1009.7
20260508195003 11 282 4.8 19.3 0.00 0.25 0.25 34 1009.8
20260508194503 11 256 6.4 14.5 0.00 0.25 0.25 35 1009.9
20260508194003 11 231 4.8 14.5 0.00 0.25 0.25 36 1010.0
20260508193503 11 229 3.2 14.5 0.00 0.25 0.25 32 1010.1
20260508193003 11 234 4.8 16.1 0.00 0.25 0.25 34 1010.1
20260508192503 11 248 4.8 16.1 0.00 0.25 0.25 37 1010.1
20260508192003 12 136 4.8 16.1 0.00 0.25 0.25 35 1010.3
20260508191503 11 188 4.8 16.1 0.00 0.25 0.25 41 1010.3
20260508191003 11 231 4.8 16.1 0.00 0.25 0.25 38 1010.4
20260508190503 11 276 4.8 16.1 0.00 0.25 0.25 37 1010.4
20260508190003 10 279 4.8 16.1 0.00 0.25 0.25 41 1010.4
20260508185503 10 289 6.4 16.1 0.00 0.25 0.25 42 1010.4
20260508185003 10 284 8.0 20.9 0.00 0.25 0.25 39 1010.6
20260508184503 10 268 6.4 25.7 0.00 0.25 0.25 40 1010.4
20260508184003 10 244 4.8 25.7 0.00 0.25 0.25 37 1010.5
20260508183713 10 249 4.8 16.1 0.00 0.25 0.25 45 1010.6
20260508183003 10 242 4.8 22.5 0.00 0.25 0.25 41 1010.6
20260508182503 10 215 4.8 22.5 0.00 0.25 0.25 41 1010.4
20260508182003 10 214 6.4 14.5 0.00 0.25 0.25 44 1010.5
20260508181503 10 234 6.4 14.5 0.00 0.25 0.25 43 1010.6
20260508181003 10 221 6.4 14.5 0.00 0.25 0.25 44 1010.6
20260508180503 10 199 8.0 17.7 0.00 0.25 0.25 44 1010.7
20260508180003 10 191 9.7 24.1 0.00 0.25 0.25 46 1010.7
20260508175503 10 194 8.0 24.1 0.00 0.25 0.25 46 1010.5
20260508175003 10 243 6.4 19.3 0.00 0.25 0.25 48 1010.7
20260508174503 9 225 6.4 22.5 0.00 0.25 0.25 53 1010.8
20260508174213 8 230 6.4 22.5 0.00 0.25 0.25 50 1010.9
20260508173503 8 246 6.4 22.5 0.00 0.25 0.25 51 1011.0
20260508173213 8 256 6.4 22.5 0.00 0.25 0.25 50 1010.9
20260508172503 8 281 6.4 20.9 0.00 0.25 0.25 48 1011.1
20260508172003 8 282 6.4 16.1 0.00 0.25 0.25 50 1011.2
20260508171712 8 287 4.8 16.1 0.00 0.25 0.25 50 1011.1
20260508171213 8 248 6.4 25.7 0.00 0.25 0.25 52 1011.4
20260508170503 8 217 11.3 25.7 0.00 0.25 0.25 51 1011.4
20260508170003 8 198 11.3 19.3 0.00 0.25 0.25 56 1011.5
20260508165503 8 202 9.7 19.3 0.00 0.25 0.25 56 1011.6
20260508165213 8 203 9.7 19.3 0.00 0.25 0.25 53 1011.5
20260508164503 7 202 8.0 19.3 0.00 0.25 0.25 58 1011.4
20260508164003 7 207 9.7 22.5 0.00 0.25 0.25 56 1011.4
20260508163503 7 201 8.0 22.5 0.00 0.25 0.25 57 1011.4
20260508163003 7 237 4.8 16.1 0.00 0.25 0.25 57 1011.5
20260508162503 6 273 6.4 16.1 0.00 0.25 0.25 57 1011.6
20260508162003 6 274 6.4 16.1 0.00 0.25 0.25 56 1011.8
20260508161714 6 275 8.0 20.9 0.00 0.25 0.25 57 1011.7
20260508161003 6 255 6.4 20.9 0.00 0.25 0.25 57 1011.8
20260508160714 6 225 6.4 17.7 0.00 0.25 0.25 56 1011.9
20260508160003 6 202 6.4 17.7 0.00 0.25 0.25 57 1011.9
20260508155503 6 197 6.4 17.7 0.00 0.25 0.25 56 1011.9
20260508155003 6 140 3.2 8.0 0.00 0.25 0.25 56 1011.8
20260508154503 6 99 3.2 9.7 0.00 0.25 0.25 55 1011.7
20260508154003 5 83 3.2 9.7 0.00 0.25 0.25 54 1011.8
20260508153503 5 68 3.2 6.4 0.00 0.25 0.25 56 1011.7
20260508153003 5 30 1.6 6.4 0.00 0.25 0.25 56 1011.8
20260508152503 5 209 1.6 9.7 0.00 0.25 0.25 55 1011.8
20260508152003 4 206 3.2 12.9 0.00 0.25 0.25 56 1011.7
20260508151503 4 141 4.8 12.9 0.00 0.25 0.25 56 1011.7
20260508151003 4 117 4.8 12.9 0.00 0.25 0.25 57 1011.7
20260508150503 4 106 4.8 11.3 0.00 0.25 0.25 57 1011.6
20260508150004 4 105 6.4 11.3 0.00 0.25 0.25 57 1011.6
20260508145503 4 106 6.4 11.3 0.00 0.25 0.25 56 1011.6
20260508145003 4 112 6.4 12.9 0.00 0.25 0.25 56 1011.6
20260508144713 4 117 6.4 12.9 0.00 0.25 0.25 56 1011.5
20260508144212 4 114 6.4 12.9 0.00 0.25 0.25 55 1011.6
20260508143713 4 98 6.4 12.9 0.00 0.25 0.25 55 1011.5
20260508143003 4 127 4.8 11.3 0.00 0.25 0.25 56 1011.5
20260508142503 4 160 4.8 11.3 0.03 0.25 0.25 55 1011.5
20260508142003 4 184 3.2 9.7 0.03 0.25 0.25 55 1011.3
20260508141503 4 240 1.6 8.0 0.03 0.25 0.25 56 1011.4
20260508141003 3 292 3.2 6.4 0.03 0.25 0.25 56 1011.4
20260508140503 3 280 1.6 6.4 0.05 0.25 0.25 56 1011.4
20260508140003 3 239 1.6 6.4 0.05 0.25 0.25 57 1011.4
20260508135713 3 256 3.2 6.4 0.08 0.25 0.25 58 1011.6
20260508135003 3 258 1.6 6.4 0.08 0.25 0.25 57 1011.5
20260508134503 3 220 0.0 4.8 0.08 0.25 0.25 58 1011.6
20260508134003 2 216 1.6 8.0 0.08 0.25 0.25 57 1011.6
20260508133713 2 206 1.6 8.0 0.08 0.25 0.25 57 1011.7
20260508133003 2 186 3.2 8.0 0.08 0.25 0.25 57 1011.9
20260508132503 2 199 1.6 8.0 0.05 0.23 0.23 57 1011.8
20260508132003 2 230 1.6 4.8 0.08 0.23 0.23 57 1011.6
20260508131503 2 244 1.6 3.2 0.08 0.23 0.23 57 1011.7
20260508131003 2 318 0.0 3.2 0.08 0.23 0.23 57 1011.7
20260508130503 2 325 0.0 1.6 0.05 0.20 0.20 57 1011.6
20260508130004 2 327 0.0 4.8 0.05 0.20 0.20 57 1011.5
20260508125503 2 306 1.6 4.8 0.05 0.18 0.18 57 1011.5
20260508125003 2 254 1.6 4.8 0.05 0.18 0.18 57 1011.4
20260508124503 2 221 0.0 3.2 0.08 0.18 0.18 57 1011.4
20260508124213 2 222 1.6 4.8 0.08 0.18 0.18 57 1011.5
20260508123503 2 240 1.6 6.4 0.13 0.18 0.18 57 1011.3
20260508123003 2 250 1.6 11.3 0.15 0.18 0.18 57 1011.2
20260508122503 2 249 3.2 11.3 0.18 0.18 0.18 57 1011.1
20260508122003 2 248 3.2 11.3 0.15 0.15 0.15 58 1011.0
20260508121503 2 256 3.2 11.3 0.15 0.15 0.15 58 1011.1
20260508121003 2 262 3.2 11.3 0.15 0.15 0.15 59 1011.0
20260508120503 2 256 3.2 11.3 0.15 0.15 0.15 59 1010.9
20260508120003 2 257 3.2 9.7 0.15 0.15 0.15 60 1011.0
20260508115503 2 264 1.6 9.7 0.13 0.13 0.13 60 1010.8
20260508115003 2 256 1.6 9.7 0.13 0.13 0.13 60 1010.8
20260508114503 2 258 3.2 11.3 0.10 0.10 0.10 59 1010.8
20260508114003 3 260 4.8 11.3 0.10 0.10 0.10 59 1010.8
20260508113503 3 257 1.6 11.3 0.05 0.05 0.05 59 1010.7
20260508113004 3 247 0.0 4.8 0.03 0.03 0.03 59 1010.6
20260508112503 3 209 0.0 1.6 0.00 0.00 0.00 59 1010.4
20260508112003 3 209 0.0 4.8 0.00 0.00 0.00 59 1010.1
20260508111503 3 209 1.6 4.8 0.00 0.00 0.00 58 1010.0
20260508111003 3 209 1.6 4.8 0.00 0.00 0.00 58 1010.0
20260508110503 3 212 1.6 4.8 0.00 0.00 0.00 58 1010.1
20260508110213 3 223 1.6 4.8 0.00 0.00 0.00 57 1010.2
20260508105503 3 196 4.8 9.7 0.00 0.00 0.00 58 1010.2
20260508105003 3 197 4.8 9.7 0.00 0.00 0.00 58 1010.1
20260508104503 3 207 3.2 6.4 0.00 0.00 0.00 57 1010.2
20260508104003 3 208 3.2 6.4 0.00 0.00 0.00 58 1010.1
20260508103503 3 211 1.6 6.4 0.00 0.00 0.00 58 1010.2
20260508103003 3 211 0.0 4.8 0.00 0.00 0.00 59 1010.2
20260508102503 3 0 0.0 0.0 0.00 0.00 0.00 58 1010.1
20260508102213 3 0 0.0 0.0 0.00 0.00 0.00 58 1010.1
20260508101503 3 0 0.0 0.0 0.00 0.00 0.00 58 1010.2
20260508101212 3 0 0.0 0.0 0.00 0.00 0.00 58 1010.2
20260508100503 3 211 0.0 4.8 0.00 0.00 0.00 58 1010.2
20260508100212 3 211 1.6 4.8 0.00 0.00 0.00 58 1010.1
20260508095503 3 206 1.6 4.8 0.00 0.00 0.00 58 1010.3
20260508095003 3 193 1.6 6.4 0.00 0.00 0.00 58 1010.4
20260508094503 3 187 3.2 6.4 0.00 0.00 0.00 58 1010.4
20260508094003 3 182 3.2 9.7 0.00 0.00 0.00 58 1010.4
20260508093503 3 180 3.2 9.7 0.00 0.00 0.00 58 1010.3
20260508093003 3 188 3.2 8.0 0.00 0.00 0.00 58 1010.4
20260508092503 3 193 3.2 8.0 0.00 0.00 0.00 59 1010.5
20260508092003 3 202 1.6 8.0 0.00 0.00 0.00 59 1010.6
20260508091713 3 206 1.6 8.0 0.00 0.00 0.00 59 1010.5
20260508091214 3 209 1.6 6.4 0.00 0.00 0.00 59 1010.6
20260508090503 3 214 1.6 6.4 0.00 0.00 0.00 59 1010.5
20260508090003 3 224 0.0 4.8 0.00 0.00 0.00 59 1010.5
20260508085713 3 242 0.0 3.2 0.00 0.00 0.00 59 1010.5
20260508085214 3 246 1.6 4.8 0.00 0.00 0.00 59 1010.5
20260508084503 3 258 0.0 4.8 0.00 0.00 0.00 59 1010.4
20260508084003 3 264 0.0 3.2 0.00 0.00 0.00 60 1010.3
20260508083503 2 260 1.6 4.8 0.00 0.00 0.00 60 1010.3
20260508083003 2 258 1.6 4.8 0.00 0.00 0.00 60 1010.4
20260508082503 2 256 1.6 4.8 0.00 0.00 0.00 60 1010.3
20260508082003 2 255 1.6 4.8 0.00 0.00 0.00 60 1010.2
20260508081503 2 255 1.6 4.8 0.00 0.00 0.00 60 1010.1
20260508081003 2 255 1.6 3.2 0.00 0.00 0.00 60 1010.0
20260508080503 2 256 0.0 3.2 0.00 0.00 0.00 61 1010.0
20260508080003 2 256 1.6 3.2 0.00 0.00 0.00 61 1010.0
20260508075503 2 255 1.6 4.8 0.00 0.00 0.00 61 1010.0
20260508075003 2 255 0.0 4.8 0.00 0.00 0.00 62 1010.1
20260508074503 2 255 0.0 3.2 0.00 0.00 0.00 61 1010.1
20260508074003 2 255 0.0 3.2 0.00 0.00 0.00 62 1010.0
20260508073503 2 255 0.0 3.2 0.00 0.00 0.00 62 1010.1
20260508073214 2 256 0.0 3.2 0.00 0.00 0.00 62 1010.1
20260508072503 2 256 0.0 4.8 0.00 0.00 0.00 62 1010.1
20260508072004 2 222 0.0 6.4 0.00 0.00 0.00 62 1010.1
20260508071503 3 227 1.6 6.4 0.00 0.00 0.00 61 1010.2
20260508071003 3 254 1.6 4.8 0.00 0.00 0.00 62 1010.4
20260508070503 3 255 1.6 4.8 0.00 0.00 0.00 62 1010.5
20260508070003 3 255 0.0 4.8 0.00 0.00 0.00 62 1010.2
20260508065503 3 264 1.6 11.3 0.00 0.00 0.00 62 1010.2
20260508065003 3 271 3.2 11.3 0.00 0.00 0.00 63 1010.3